[[{"header":{"parameterUnit":"m.s-1","parameterCategory":1,"la1":30.2991,"la2":30.254,"lo1":-89.0895,"lo2":-89.0444,"dy":0.0017,"dx":0.0017,"nx":28,"ny":28,"refTime":"2026-02-13T09:00:00:Z","depth":0,"parameterNumber":2,"parameterNumberName":"U-component_of_WINDS"},"data":[0,0,0,0,0,0,0,0,0,0,0,0,0,0,0,0,0,0,0,0,0,0,0,0,0,0,0,0,0,0,0,0,0,0,0,0,0,0,0,0,0,0,0,0,0,0,0,0,0,0,0,0,0,0,0,0,0,0,-5.2229,-5.2231,0,-5.2396,-5.2398,-5.24,-5.2415,-5.2413,-5.2411,-5.241,-5.2578,-5.2584,-5.259,0,0,0,0,0,0,0,0,0,0,0,0,0,-5.1924,-5.193,-5.2229,-5.2231,-5.2233,-5.2396,-5.2398,-5.24,-5.2415,-5.2413,-5.2411,-5.2409,-5.2576,-5.2583,-5.2591,0,0,0,0,0,0,0,0,0,0,0,0,0,-5.207,-5.1932,-5.2228,-5.226,-5.2265,-5.2395,-5.2398,-5.2401,-5.2416,-5.2413,-5.241,-5.2408,-5.2574,-5.2582,-5.2592,-5.2701,0,0,-5.262,-5.2624,0,0,0,0,0,0,0,0,-5.2062,-5.2081,-5.2253,-5.2258,-5.2263,-5.2382,-5.2352,-5.2501,-5.2416,-5.2358,-5.241,-5.2407,-5.2515,-5.2529,-5.2566,-5.2709,-5.2716,-5.262,-5.2626,-5.263,-5.2633,0,0,0,0,0,0,0,-5.2052,-5.2074,-5.2295,-5.2256,-5.2262,-5.2267,-5.2284,-5.2381,-5.2449,-5.2363,-5.2365,-5.2384,-5.2517,-5.2557,-5.257,-5.2719,-5.262,-5.2628,-5.2634,-5.2638,-5.2965,-5.2968,0,0,0,0,0,0,-5.2036,-5.2066,-5.2289,-5.23,-5.2154,-5.2274,-5.2294,-5.2346,-5.2448,-5.2461,-5.2386,-5.2384,-5.2542,-5.2559,-5.2576,-5.2712,-5.263,-5.2638,-5.2644,-5.2962,-5.2966,-5.2969,0,0,0,0,0,0,-5.2029,-5.2056,-5.2283,-5.2183,-5.2213,-5.2282,-5.2341,-5.2351,-5.2391,-5.2466,-5.2478,-5.2414,-5.2541,-5.2563,-5.2671,-5.2718,-5.2643,-5.2651,-5.2958,-5.2963,-5.2967,-5.2985,0,0,0,0,0,0,-5.202,-5.2053,-5.2094,-5.2184,-5.2218,-5.2374,-5.2344,-5.2356,-5.2407,-5.2406,-5.2495,-5.2507,-5.254,-5.2657,-5.268,-5.2729,-5.2658,-5.2954,-5.296,-5.2966,-5.298,-5.2989,-5.2997,0,0,0,0,0,-5.2009,-5.2091,-5.2096,-5.2123,-5.2271,-5.2377,-5.2396,-5.2433,-5.2411,-5.2453,-5.2503,-5.2504,-5.271,-5.2668,-5.2694,-5.2747,-5.2951,-5.2958,-5.2965,-5.2976,-5.2988,-5.2997,0,0,0,0,0,0,-5.2002,-5.2103,-5.211,-5.2223,-5.2292,-5.2379,-5.2433,-5.2444,-5.2519,-5.2515,-5.2558,-5.2578,-5.2685,-5.2727,-5.2678,-5.2861,-5.2828,-5.2841,-5.2828,-5.2839,-5.2848,-5.2834,-5.2666,0,0,0,0,0,-5.2015,-5.2092,-5.2176,-5.2268,-5.2303,-5.2363,-5.241,-5.2434,-5.2506,-5.2534,-5.2591,-5.2661,-5.2742,-5.2793,-5.2871,-5.2988,-5.3009,-5.3038,-5.3047,-5.3053,-5.3062,-5.313,-5.3144,-5.2993,-5.2992,-5.2992,0,0,-5.2039,-5.2104,-5.215,-5.2269,-5.2324,-5.2405,-5.2386,-5.2471,-5.2531,-5.2547,-5.2652,-5.2698,-5.2779,-5.2892,-5.2945,-5.2931,-5.311,-5.3062,-5.3067,-5.3073,-5.3139,-5.3153,-5.3166,-5.2997,-5.2996,-5.2996,0,0,-5.2124,-5.2181,-5.2265,-5.2323,-5.2409,-5.245,-5.247,-5.2558,-5.2589,-5.2697,-5.2712,-5.2785,-5.2922,-5.298,-5.3028,-5.3143,-5.3148,-5.3168,-5.3211,-5.3277,-5.3289,-5.3299,-5.3341,-5.3355,-5.3178,-5.3178,-5.3178,0,-5.2143,-5.2264,-5.2307,-5.2393,-5.2445,-5.2467,-5.2553,-5.2607,-5.2714,-5.275,-5.2734,-5.291,-5.2966,-5.3095,-5.3124,-5.3162,-5.3187,-5.3155,-5.3284,-5.3295,-5.3306,-5.3346,-5.3361,-5.318,-5.3179,-5.3179,-5.3179,0,-5.2284,-5.2369,-5.2427,-5.2531,-5.2591,-5.2677,-5.2733,-5.2789,-5.281,-5.2853,-5.2964,-5.3034,-5.3127,-5.3161,-5.318,-5.3294,-5.3283,-5.3275,-5.3243,-5.3321,-5.3359,-5.3375,-5.3182,-5.3181,-5.3181,-5.3181,0,0,-5.2362,-5.2496,-5.2516,-5.2565,-5.2665,-5.2731,-5.282,-5.2914,-5.2962,-5.3037,-5.3112,-5.3232,-5.3227,-5.3281,-5.3308,-5.3366,-5.3455,-5.3352,-5.3355,-5.3368,-5.3586,-5.3589,-5.3606,-5.3461,-5.3464,-5.3467,-5.3579,0,-5.2458,-5.2616,-5.266,-5.2793,-5.2873,-5.2899,-5.2976,-5.3047,-5.3091,-5.3166,-5.3215,-5.3299,-5.3286,-5.332,-5.3379,-5.3431,-5.3499,-5.3424,-5.3531,-5.3534,-5.3506,-5.3626,-5.3628,-5.373,-5.3594,-5.3596,-5.3598,0,-5.2589,-5.2669,-5.2811,-5.2905,-5.294,-5.3009,-5.3101,-5.3173,-5.3255,-5.3283,-5.3347,-5.3371,-5.3466,-5.3433,-5.3565,-5.3514,-5.3561,-5.3595,-5.36,-5.3608,-5.3568,-5.3636,-5.3763,-5.3778,-5.3622,-5.362,-5.3619,0,-5.2631,-5.2775,-5.288,-5.2922,-5.3034,-5.3082,-5.3131,-5.3211,-5.3266,-5.3348,-5.3385,-5.3476,-5.3525,-5.3596,-5.3644,-5.3615,-5.3773,-5.3743,-5.3799,-5.3798,-5.3827,-5.3824,-5.3962,-5.3862,-5.3862,-5.3861,-5.3861,0,-5.2731,-5.2817,-5.2901,-5.2964,-5.3062,-5.3114,-5.321,-5.326,-5.3333,-5.3407,-5.3437,-5.3506,-5.3568,-5.3647,-5.3686,-5.379,-5.3812,-5.3838,-5.3847,-5.3834,-5.383,-5.3862,-5.3856,-5.3866,-5.3865,-5.3864,-5.3863,0,-5.2792,-5.2852,-5.2967,-5.3067,-5.3094,-5.3162,-5.3247,-5.3311,-5.336,-5.3455,-5.348,-5.3555,-5.365,-5.3708,-5.3827,-5.3853,-5.3968,-5.3975,-5.394,-5.3944,-5.3996,-5.3989,-5.4157,-5.4182,-5.4067,-5.4068,-5.4069,0,-5.285,-5.2917,-5.3026,-5.3079,-5.3129,-5.3214,-5.3272,-5.3328,-5.3387,-5.349,-5.3542,-5.364,-5.3719,-5.387,-5.3936,-5.4029,-5.4037,-5.409,-5.405,-5.4036,-5.4036,-5.403,-5.4038,-5.4094,-5.4095,-5.4096,-5.4097,0,-5.2947,-5.2975,-5.3057,-5.3153,-5.3222,-5.3299,-5.3375,-5.3418,-5.3487,-5.3553,-5.3651,-5.3714,-5.3839,-5.3935,-5.4035,-5.4087,-5.4104,-5.411,-5.4128,-5.4113,-5.4089,-5.4102,-5.3956,-5.4104,-5.4104,-5.4103,-5.4103,-5.4102,-5.3007,-5.3069,-5.3157,-5.3249,-5.3314,-5.3387,-5.3452,-5.3511,-5.3595,-5.3701,-5.373,-5.3834,-5.392,-5.4056,-5.411,-5.4193,-5.4184,-5.421,-5.4216,-5.422,-5.4221,-5.408,-5.4211,-5.4211,-5.4211,-5.4211,-5.4211,0,-5.3104,-5.3164,-5.3249,-5.3357,-5.3431,-5.3445,-5.3532,-5.3593,-5.3684,-5.3763,-5.3843,-5.3958,-5.4054,-5.413,-5.4229,-5.428,-5.4291,-5.4304,-5.4299,-5.4311,-5.4223,-5.4198,-5.4294,-5.4294,-5.4294,-5.4294,-5.4294,-5.4294,-5.3163,-5.327,-5.3309,-5.3449,-5.3508,-5.3611,-5.366,-5.3728,-5.3792,-5.3919,-5.4,-5.405,-5.4129,-5.4235,-5.4324,-5.4344,-5.4378,-5.439,-5.4411,-5.4326,-5.4317,-5.4308,-5.4284,-5.4397,-5.4397,-5.4492,-5.4492,-5.4493]},{"header":{"parameterUnit":"m.s-1","parameterCategory":1,"la1":30.2991,"la2":30.254,"lo1":-89.0895,"lo2":-89.0444,"dy":0.0017,"dx":0.0017,"nx":28,"ny":28,"refTime":"2026-02-13T09:00:00:Z","depth":0,"parameterNumber":3,"parameterNumberName":"V-component_of_WINDS"},"data":[0,0,0,0,0,0,0,0,0,0,0,0,0,0,0,0,0,0,0,0,0,0,0,0,0,0,0,0,0,0,0,0,0,0,0,0,0,0,0,0,0,0,0,0,0,0,0,0,0,0,0,0,0,0,0,0,0,0,2.4495,2.4496,0,2.455,2.455,2.4551,2.456,2.456,2.4559,2.4559,2.4614,2.4615,2.4617,0,0,0,0,0,0,0,0,0,0,0,0,0,2.4402,2.4404,2.4495,2.4496,2.4497,2.455,2.455,2.4551,2.456,2.456,2.4559,2.4558,2.4613,2.4615,2.4618,0,0,0,0,0,0,0,0,0,0,0,0,0,2.4448,2.4404,2.4495,2.4508,2.4509,2.4549,2.455,2.4551,2.456,2.456,2.4559,2.4558,2.4612,2.4615,2.4618,2.4649,0,0,2.4627,2.4628,0,0,0,0,0,0,0,0,2.4446,2.4452,2.4505,2.4507,2.4509,2.4547,2.4538,2.4584,2.456,2.4541,2.4559,2.4558,2.4592,2.4597,2.4608,2.4652,2.4654,2.4627,2.4628,2.463,2.4631,0,0,0,0,0,0,0,2.4442,2.4449,2.4517,2.4506,2.4508,2.4511,2.4517,2.4547,2.457,2.4542,2.4543,2.455,2.4593,2.4605,2.461,2.4655,2.4627,2.4629,2.4631,2.4632,2.4733,2.4734,0,0,0,0,0,0,2.4437,2.4447,2.4515,2.4518,2.4475,2.4514,2.452,2.4536,2.4569,2.4574,2.455,2.455,2.4601,2.4606,2.4612,2.4654,2.463,2.4632,2.4634,2.4732,2.4733,2.4734,0,0,0,0,0,0,2.4435,2.4443,2.4513,2.4483,2.4492,2.4516,2.4533,2.4537,2.455,2.4575,2.4579,2.4559,2.4601,2.4608,2.4641,2.4656,2.4634,2.4636,2.4731,2.4732,2.4733,2.4736,0,0,0,0,0,0,2.4432,2.4442,2.4453,2.4483,2.4494,2.454,2.4534,2.4539,2.4555,2.4555,2.4584,2.4588,2.4601,2.4637,2.4644,2.4659,2.4638,2.4729,2.4731,2.4733,2.4735,2.4738,2.474,0,0,0,0,0,2.4429,2.445,2.4454,2.4462,2.4508,2.4541,2.4547,2.4561,2.4556,2.4568,2.4585,2.4587,2.4653,2.464,2.4648,2.4664,2.4728,2.4731,2.4733,2.4734,2.4737,2.474,0,0,0,0,0,0,2.442,2.4454,2.4458,2.449,2.4513,2.4543,2.4558,2.4563,2.4588,2.4587,2.4603,2.4609,2.4643,2.4657,2.4642,2.4699,2.4691,2.4694,2.4689,2.4692,2.4694,2.469,2.4641,0,0,0,0,0,2.4422,2.4446,2.4475,2.45,2.4512,2.4533,2.4548,2.4557,2.4581,2.4591,2.461,2.4634,2.466,2.4677,2.4702,2.4738,2.4746,2.4753,2.4756,2.4758,2.4761,2.4785,2.4789,2.4741,2.4741,2.4741,0,0,2.4426,2.4448,2.4461,2.4499,2.4518,2.4544,2.4541,2.4567,2.4587,2.4594,2.4628,2.4644,2.4671,2.4707,2.4724,2.472,2.4776,2.476,2.4762,2.4764,2.4787,2.4792,2.4796,2.4742,2.4742,2.4742,0,0,2.4446,2.4464,2.4489,2.4509,2.4538,2.4553,2.456,2.459,2.4601,2.4635,2.4643,2.4668,2.4711,2.4732,2.4748,2.4783,2.4787,2.4791,2.4803,2.4826,2.483,2.4834,2.4848,2.4853,2.4794,2.4794,2.4794,0,2.4447,2.4485,2.4501,2.4528,2.4546,2.4557,2.4584,2.4602,2.4638,2.4651,2.4647,2.4706,2.4724,2.4767,2.4776,2.4788,2.4798,2.4787,2.4828,2.4832,2.4836,2.485,2.4855,2.4794,2.4794,2.4794,2.4794,0,2.4486,2.4513,2.453,2.4567,2.4587,2.4613,2.4635,2.4654,2.4663,2.4679,2.4716,2.474,2.4773,2.4784,2.4791,2.4829,2.4826,2.4825,2.4816,2.484,2.4854,2.486,2.4795,2.4795,2.4794,2.4794,0,0,2.4499,2.4548,2.4554,2.4572,2.4608,2.4629,2.4659,2.4692,2.4709,2.4734,2.4761,2.48,2.4801,2.482,2.4831,2.4851,2.4881,2.4848,2.4849,2.4855,2.4927,2.4929,2.4934,2.4884,2.4885,2.4886,2.4926,0,2.4524,2.4576,2.4594,2.4638,2.4665,2.4678,2.4704,2.473,2.4747,2.4774,2.4793,2.4822,2.4819,2.4831,2.4852,2.4873,2.4896,2.487,2.491,2.4912,2.4903,2.4941,2.4941,2.4977,2.4931,2.4932,2.4933,0,2.456,2.4589,2.4635,2.4672,2.4684,2.4707,2.4741,2.4766,2.4797,2.4808,2.4832,2.4843,2.4876,2.4867,2.4915,2.4897,2.4916,2.4929,2.4931,2.4935,2.4923,2.4948,2.4989,2.4994,2.4941,2.494,2.4939,0,2.4567,2.4617,2.4653,2.4668,2.4711,2.4727,2.4746,2.4777,2.4797,2.4828,2.4842,2.4875,2.4894,2.492,2.4941,2.4932,2.4989,2.498,2.5,2.5,2.5011,2.501,2.5056,2.5021,2.5021,2.5021,2.5021,0,2.4593,2.4622,2.4657,2.4679,2.4713,2.4734,2.4768,2.4787,2.4816,2.4843,2.4857,2.4882,2.4908,2.4938,2.4954,2.4994,2.5001,2.5013,2.5017,2.5012,2.5011,2.5024,2.5022,2.5023,2.5022,2.5022,2.5022,0,2.4606,2.463,2.467,2.4709,2.472,2.4744,2.4778,2.4801,2.4821,2.4856,2.4865,2.4896,2.4933,2.4957,2.5002,2.5014,2.5058,2.506,2.5047,2.5049,2.5069,2.5068,2.5126,2.5136,2.5094,2.5094,2.5094,0,2.4621,2.4644,2.4687,2.4707,2.4726,2.4757,2.478,2.4804,2.4826,2.4867,2.4886,2.4924,2.4955,2.5013,2.504,2.5077,2.5081,2.51,2.5086,2.5082,2.5084,2.5083,2.5086,2.5101,2.5102,2.5102,2.5102,0,2.4646,2.4659,2.4689,2.4727,2.4753,2.4783,2.4813,2.4829,2.4859,2.4884,2.4922,2.4947,2.4996,2.5034,2.5074,2.5095,2.5105,2.5107,2.5114,2.5108,2.5101,2.5107,2.5054,2.5105,2.5104,2.5104,2.5104,2.5104,2.4661,2.4684,2.4719,2.4755,2.4781,2.481,2.4835,2.486,2.4892,2.4934,2.4947,2.4988,2.5024,2.5079,2.5101,2.5135,2.5132,2.5142,2.5145,2.5147,2.5148,2.5096,2.5142,2.5142,2.5142,2.5142,2.5142,0,2.4689,2.4713,2.4746,2.4789,2.4819,2.4827,2.4862,2.4886,2.4922,2.4954,2.4986,2.5033,2.5072,2.5104,2.5145,2.5166,2.5171,2.5176,2.5174,2.518,2.5146,2.5137,2.5171,2.5171,2.5171,2.5171,2.5171,2.5171,2.4706,2.4746,2.4764,2.4818,2.4843,2.4884,2.4904,2.4932,2.4958,2.501,2.5043,2.5064,2.5098,2.5142,2.518,2.5188,2.5203,2.5207,2.5217,2.5185,2.5182,2.5178,2.517,2.521,2.521,2.5248,2.5248,2.5248]}]]